994  
ASUS43 KEAX 230110  
RWREAX  
 
WEATHER ROUNDUP FOR EASTERN KANSAS AND NORTHWEST MISSOURI  
NATIONAL WEATHER SERVICE KANSAS CITY/PLEASANT HILL MO  
800 PM CDT THU JUN 22 2017  
 
KSZ040-057-103>105-MOZ028-029-037-043-230200-   
..KANSAS CITY METROPOLITAN AREA
 
 
 
CITY SKY/WX TMP DP RH WIND PRES REMARKS
 
K.C. INTL PTCLDY 82 72 71 SW7 29.67R  
K.C. DOWNTOWN CLEAR 86 72 62 S8G30 29.65R HX 92  
LEES SUMMIT CLEAR 83 74 74 S13 29.66S  
OLATHE - IXD CLEAR 83 72 69 S13 29.66S  
OLATHE - OJC CLEAR 82 73 74 S15 29.66S  
LAWRENCE PTCLDY 85 73 67 SE10 29.65R HX 91  
 

 
 
MOZ001>008-011>017-020>025-030>033-038>040-044>046-053-054-230200-   
..NORTHERN AND CENTRAL MISSOURI
 
 
 
CITY SKY/WX TMP DP RH WIND PRES REMARKS
 
ST. JOSEPH PTCLDY 84 73 69 S7 29.66R HX 90  
MOSBY PTCLDY 82 70 65 S5 29.66R  
WARRENSBURG CLEAR 81 72 74 SE9 29.67F  
WHITEMAN AFB PTCLDY 82 76 83 S9 29.66F HX 90  
CLINTON CLEAR 84 73 70 SE8 29.68F HX 91  
SEDALIA CLEAR 82 75 79 SE10 29.70F  
WARSAW NOT AVBL  
CHILLICOTHE N/A 83 73 72 S3 29.69R  
KIRKSVILLE CLEAR 81 72 74 S10 29.71R  
 

 
 
MOZ041-047>049-056>058-063>065-088>090-097-230200-   
..EASTERN AND SOUTHERN MISSOURI
 
 
 
CITY SKY/WX TMP DP RH WIND PRES REMARKS
 
ST. LOUIS INTL CLOUDY 85 71 63 SE14 29.74S HX 90  
SPIRIT OF STL MOCLDY 83 73 72 S6 29.71F  
COLUMBIA CLOUDY 81 74 79 S6 29.71F  
JEFFERSON CITY CLOUDY 84 73 69 SE6 29.69S HX 90  
ROLLA PTCLDY 81 73 76 SE9 29.73S  
OSAGE BEACH MOCLDY 82 74 76 CALM 29.72S  
SPRINGFIELD PTCLDY 83 71 67 SE10 29.71S  
BRANSON MOCLDY 79 72 78 SE14 29.74S  
JOPLIN MOCLDY 84 76 76 S6 29.69R HX 93  
WEST PLAINS MOCLDY 78 72 81 S9 29.77R  
 

 
 
IAZ060-094-KSZ022-034>040-054-083-096-NEZ052-066-093-230200-    
..KANSAS...SOUTHEAST NEBRASKA AND IOWA
 
 
 
CITY SKY/WX TMP DP RH WIND PRES REMARKS
 
TOPEKA PTCLDY 86 72 62 S9 29.65R HX 92  
MANHATTAN CLEAR 89 70 53 S12 29.62S HX 94  
EMPORIA CLEAR 83 72 69 S7 29.66R  
CHANUTE PTCLDY 85 72 65 S8 29.66S HX 91  
WICHITA PTCLDY 86 70 58 SE12 29.64R HX 90  
OMAHA MOCLDY 87 72 60 N9 29.63R HX 93  
LINCOLN CLOUDY 86 70 58 NE8 29.64R HX 90  
FALLS CITY PTCLDY 85 70 60 S9 29.63S  
LAMONI MOCLDY 82 71 69 S9 29.68R  
DES MOINES CLOUDY 85 70 60 SW8 29.65S  
 

 
 
 
 
CLICK HERE TO GO TO PREVIOUS BULLETINS.

The Nexlab MO Page
The Nexlab KS Page Main Text Page